Theta_e
333 335 335 333 333 331 332 332 331 332 330 328 326 323 321 321 316 313 313 315 314 318 320 316 320 323 321 321 319 317 315 313 316 316 316 315 313 308 307 307 308 307 306 306 307 308 309 311 313 314 314 313 312 312 311 311 311 311 309 311 310 310 310 311 311 313 311 310 310 310 310 310 310 311
332 333 333 332 330 332 332 331 333 333 330 326 326 323 323 322 317 316 313 313 316 315 318 318 316 319 317 316 317 316 313 312 317 314 314 314 312 306 306 306 307 306 305 305 306 308 308 310 311 312 312 311 311 311 311 312 313 311 309 307 308 310 308 309 311 313 312 311 310 308 309 309 309 309
330 332 333 332 331 333 333 333 333 332 328 326 324 323 323 322 322 319 316 312 316 318 316 316 318 316 315 316 316 314 315 315 317 315 314 312 307 307 306 305 306 306 306 306 307 311 310 309 310 312 312 312 311 312 313 313 312 312 309 307 308 308 308 308 307 310 312 311 310 309 308 308 308 308
329 332 333 332 331 332 333 332 331 327 326 326 322 322 322 321 323 323 318 314 314 318 317 316 316 316 316 315 313 314 314 314 314 316 314 309 308 309 309 307 307 307 307 308 310 312 310 310 311 310 311 311 310 311 310 311 310 309 308 307 306 307 307 306 307 306 307 307 308 309 308 307 308 308
326 327 328 331 333 334 331 330 328 325 324 324 322 323 320 319 321 319 318 315 314 318 320 317 314 315 316 313 314 312 314 315 316 314 312 310 312 311 310 309 305 305 306 306 306 307 309 311 311 306 305 306 306 305 306 306 305 307 305 303 305 307 307 307 307 306 307 307 307 306 306 307 307 307
326 328 328 329 333 332 328 328 324 323 323 321 320 320 320 318 319 320 317 315 314 315 317 314 315 313 315 312 314 314 314 315 315 312 311 311 313 312 312 310 308 303 305 303 304 305 305 305 304 303 303 304 304 305 304 304 303 304 302 302 305 307 306 306 304 304 305 306 307 307 306 306 306 306
325 326 327 331 331 330 328 326 327 325 323 322 320 321 321 321 320 318 317 316 315 314 313 315 313 313 313 315 313 314 315 315 315 312 311 311 313 315 314 312 310 302 303 302 304 304 304 304 303 304 304 303 303 303 303 303 302 301 301 302 304 302 302 301 302 303 304 306 306 306 305 304 305 306
324 325 325 327 328 328 325 324 324 324 324 322 321 321 322 323 321 322 323 319 317 314 312 315 313 314 312 314 315 315 315 315 315 314 312 313 314 315 315 314 311 303 302 302 304 304 304 304 303 303 303 303 302 302 302 302 301 301 301 300 300 301 300 300 299 300 302 302 303 303 302 302 303 305
324 324 324 325 325 326 324 325 323 324 324 321 324 323 322 321 323 323 322 321 319 317 315 315 316 316 314 315 316 315 314 315 315 315 314 313 315 318 318 315 309 303 302 303 304 304 303 303 303 303 302 302 302 301 301 301 301 301 301 301 300 300 300 299 299 299 299 299 299 300 300 300 301 303
323 324 324 325 326 325 326 323 326 326 323 321 323 322 320 321 322 323 322 322 321 319 316 317 316 317 314 314 317 316 316 315 314 314 315 316 317 317 317 312 309 306 306 308 308 303 303 302 302 302 302 302 300 301 301 301 301 301 300 300 300 300 299 299 299 298 298 298 298 297 298 299 300 302
323 322 322 323 324 324 325 325 325 325 324 323 322 322 322 320 321 321 321 320 319 320 319 318 317 315 316 317 315 315 317 316 315 314 314 314 315 318 316 315 312 312 310 309 305 306 307 305 304 302 302 301 301 301 300 301 301 300 298 298 299 299 299 299 299 299 298 298 297 296 296 297 299 300
325 325 323 323 321 323 324 326 324 324 323 323 322 322 322 322 321 321 320 321 320 320 320 318 315 316 316 315 318 317 316 314 314 315 315 313 314 316 319 318 317 315 315 313 310 307 306 304 303 301 301 301 300 300 300 301 301 299 298 298 298 298 299 298 299 299 298 298 298 297 296 295 295 298
326 326 327 327 328 329 323 312 314 314 316 327 325 325 326 324 323 322 321 323 319 319 318 318 318 316 316 315 316 315 314 313 313 317 318 316 317 316 316 317 319 316 316 316 313 310 310 308 307 305 305 304 302 302 302 302 301 298 298 298 298 299 298 298 298 298 298 298 297 297 296 296 296 296
326 327 327 331 321 318 316 312 305 304 303 307 321 326 327 325 325 323 321 320 321 320 319 319 318 315 314 315 317 316 317 318 318 317 317 314 315 316 316 318 319 319 317 315 313 313 313 312 310 309 308 307 305 306 305 305 302 300 298 299 299 299 299 298 298 298 298 297 298 297 297 296 296 295
326 328 327 329 328 325 320 326 303 301 303 303 301 300 303 309 322 322 321 321 321 322 320 323 321 319 316 317 318 317 317 318 317 316 317 316 315 313 312 310 316 320 318 315 314 314 314 313 312 312 313 308 308 310 312 302 300 299 299 298 299 299 298 299 298 298 297 297 297 296 296 296 296 295
328 327 328 329 332 330 327 327 325 312 302 301 302 301 300 299 298 300 316 319 319 320 319 318 319 319 318 317 317 316 317 317 318 318 316 316 314 314 312 312 311 317 320 315 314 313 316 316 314 314 314 313 314 311 300 299 298 298 298 298 298 299 299 298 297 297 297 296 296 295 295 296 295 294
326 326 327 327 329 327 326 326 327 328 325 303 299 299 299 298 297 298 297 298 316 319 318 318 319 318 317 317 317 320 320 321 317 317 314 316 317 316 314 313 313 317 320 316 314 312 315 315 314 313 315 315 313 304 299 298 298 299 298 298 298 298 298 297 297 296 296 295 295 295 295 295 294 294
326 326 326 325 326 329 330 329 328 327 326 328 324 324 324 325 319 300 295 294 293 305 318 318 317 321 322 318 322 325 324 320 316 316 315 318 316 315 314 318 318 319 319 315 314 312 312 315 314 311 313 311 312 313 306 298 298 298 298 298 298 297 297 297 297 296 296 295 295 295 295 294 294 294
328 328 327 327 325 326 328 330 326 328 327 326 326 326 327 326 326 326 326 325 324 323 323 322 322 322 324 325 325 327 324 323 323 322 320 321 319 319 320 317 318 317 318 318 316 310 311 314 310 311 311 310 310 313 303 298 298 298 298 297 297 297 297 296 296 296 296 296 295 295 295 294 293 293
326 328 329 327 326 326 327 314 306 315 329 325 323 322 323 324 324 325 300 295 296 307 314 317 320 323 322 317 334 333 328 324 325 322 323 322 321 317 317 313 312 312 315 317 313 311 311 312 308 309 311 310 308 309 310 297 298 298 297 297 296 296 296 295 296 296 296 295 295 295 295 294 293 293
328 328 327 328 327 328 326 306 303 303 309 325 323 321 321 322 322 323 309 295 291 291 291 291 291 292 293 294 294 295 303 321 320 321 317 317 318 316 313 312 311 311 313 311 312 310 306 307 307 307 309 309 307 307 306 303 298 297 297 296 296 296 296 296 296 296 296 295 295 295 295 294 294 293
326 326 323 323 327 328 323 300 296 297 313 324 322 321 321 320 318 321 318 315 305 292 292 292 292 293 295 297 299 297 297 300 310 318 316 315 319 313 313 309 309 310 311 308 310 306 304 306 306 306 307 306 306 305 305 305 301 297 297 296 296 296 296 296 295 296 295 295 295 296 295 294 294 297
325 323 321 307 308 314 304 293 298 294 305 322 322 322 320 318 318 321 321 317 313 312 312 311 312 309 308 314 313 309 299 303 310 321 319 321 316 314 312 310 309 305 306 308 310 303 303 303 306 305 302 300 303 306 307 306 305 303 303 302 299 296 295 295 296 295 295 295 295 295 295 294 294 298
320 320 318 310 295 296 295 296 292 295 293 313 321 322 320 319 319 321 319 318 317 316 315 315 314 314 314 314 313 314 313 314 314 316 317 315 313 312 309 307 305 304 304 306 309 304 304 305 302 305 302 298 294 302 306 305 306 306 306 304 303 299 295 296 295 295 295 295 294 294 295 295 295 298
317 317 318 316 296 295 295 294 292 293 293 293 313 319 321 318 312 303 318 318 305 317 316 315 314 315 314 314 313 312 313 312 313 312 312 312 310 309 307 306 307 304 302 301 297 306 302 303 302 303 302 301 300 300 302 303 305 303 305 304 302 303 302 300 299 300 296 293 294 294 294 294 294 297
317 316 319 311 298 292 294 291 292 291 292 291 307 317 299 293 294 319 317 320 316 315 316 314 313 313 312 312 312 312 312 311 309 310 309 307 306 306 305 303 302 302 300 301 295 302 300 300 301 300 301 299 299 300 299 301 303 303 305 304 303 303 304 302 302 302 302 301 301 298 298 294 295 294
316 319 310 304 293 292 291 291 290 291 290 292 306 300 296 298 293 299 316 316 315 313 313 313 312 311 311 311 310 310 310 309 308 306 305 304 303 302 301 302 305 304 303 302 301 302 301 300 302 300 298 300 298 298 298 297 300 304 302 302 303 303 303 302 301 300 300 300 300 296 295 294 293 293
311 308 306 299 288 291 291 291 290 290 291 302 294 294 294 292 295 312 314 313 314 311 312 311 312 310 310 310 309 308 309 305 304 303 303 303 302 301 301 301 300 301 302 302 302 302 302 300 301 302 301 299 297 296 296 299 299 300 299 302 302 302 302 301 300 300 299 300 299 299 298 298 299 298
308 295 290 291 292 291 290 289 289 290 290 288 289 291 291 295 311 313 312 312 313 311 309 308 308 305 304 303 301 302 302 303 303 303 302 302 302 302 302 301 300 300 301 301 300 301 301 301 300 301 301 300 298 298 297 297 298 298 299 298 297 300 300 301 300 299 298 299 298 298 297 297 297 297
288 287 292 288 288 290 294 304 308 309 305 291 290 289 291 307 312 313 313 312 312 308 306 305 306 305 304 302 302 303 303 301 300 300 299 299 298 300 300 298 299 301 301 300 299 300 300 300 300 300 299 299 298 297 297 296 296 297 298 297 298 300 298 299 299 299 298 297 297 297 298 298 297 296
304 301 298 298 291 292 289 291 294 297 295 300 301 303 303 305 307 310 310 309 307 304 304 302 302 302 302 301 300 300 303 302 302 303 299 298 297 299 298 297 299 300 301 302 300 299 299 299 300 300 297 297 298 298 298 298 295 296 297 299 298 294 297 298 298 297 297 297 297 297 297 297 297 296
303 304 295 295 301 303 303 303 303 303 303 303 301 304 305 305 305 304 301 302 307 306 306 303 300 299 299 299 300 301 299 297 298 299 299 297 296 296 296 295 295 297 298 300 300 299 295 297 298 299 299 298 296 297 297 296 295 296 297 297 297 297 298 297 297 297 298 297 296 295 295 296 296 296
302 304 305 304 305 304 299 298 300 303 303 301 304 305 306 307 307 307 307 306 305 306 304 300 299 297 300 300 298 296 296 297 297 298 297 298 296 295 295 294 296 296 295 296 299 300 298 298 298 299 299 299 298 297 295 293 295 296 296 296 296 296 296 297 296 296 297 295 294 294 294 296 296 296
297 299 300 301 299 301 302 302 301 302 303 300 301 301 300 302 306 306 305 306 307 305 300 298 298 299 297 296 297 297 296 296 295 295 294 295 296 294 294 293 294 295 295 295 295 296 299 300 300 300 300 299 299 299 298 295 294 296 296 296 296 295 296 297 297 297 296 295 294 293 293 293 295 295
297 299 300 300 300 301 302 300 300 298 300 300 301 302 303 304 303 301 303 304 302 299 296 296 298 296 296 295 296 295 294 293 293 294 294 294 295 294 293 293 293 294 294 294 294 296 297 296 297 295 295 296 296 298 298 301 297 296 296 296 296 295 295 296 296 296 296 295 295 292 292 292 293 294
298 299 300 300 298 300 299 298 300 300 300 301 301 301 300 299 301 299 301 302 302 298 298 297 295 295 296 295 294 293 291 291 292 291 289 292 291 293 294 293 292 293 293 292 293 294 295 296 295 293 290 291 291 290 293 295 296 296 294 292 295 295 295 295 295 296 295 294 294 292 290 289 291 293
299 299 297 301 302 301 299 301 301 301 302 302 300 301 300 299 300 303 302 298 303 298 295 295 294 294 292 291 291 290 291 290 289 289 290 291 291 291 291 290 290 291 291 292 294 294 295 294 295 293 292 290 289 289 290 292 292 296 298 292 292 295 294 294 294 293 294 294 294 293 291 290 289 292
298 299 300 300 300 301 300 301 298 299 299 300 301 300 301 302 303 302 303 302 299 295 292 292 292 292 292 291 291 291 291 290 290 290 290 290 289 289 289 289 289 291 291 293 295 295 296 295 294 293 292 289 288 288 289 292 292 294 295 297 292 292 293 293 292 292 292 294 294 294 293 291 290 293
300 299 300 299 300 300 299 299 298 298 302 300 299 299 298 300 301 301 297 299 297 294 294 293 292 291 291 291 290 290 290 289 289 290 290 289 290 290 290 290 290 291 291 291 294 295 296 294 294 294 293 291 289 289 291 290 290 293 294 293 297 293 293 291 292 292 292 291 293 294 292 293 294 291
299 298 299 299 299 299 299 300 299 300 299 299 299 300 298 296 297 296 297 295 294 293 293 292 290 290 291 291 290 290 290 289 289 289 289 289 290 290 290 290 290 290 290 290 289 291 292 294 294 294 294 293 292 291 293 293 293 294 294 292 291 294 292 293 292 292 291 293 293 291 290 291 290 292
297 298 298 297 297 298 297 298 298 296 298 299 299 296 297 296 296 295 296 295 292 293 292 291 290 290 290 290 290 290 289 289 289 290 290 290 289 290 289 288 290 290 290 290 291 291 292 295 293 289 294 294 292 292 292 291 290 292 292 293 291 290 292 292 296 294 291 293 292 290 289 289 289 290
297 297 297 297 297 297 297 297 298 296 296 296 296 294 293 293 291 290 291 290 291 290 291 290 290 290 290 290 290 289 289 289 289 290 290 290 290 289 288 288 288 290 290 290 290 291 295 296 296 298 297 293 292 290 289 289 289 290 292 292 292 291 290 289 289 290 296 291 291 289 289 290 290 289
296 296 295 295 295 296 296 296 296 296 295 295 294 293 293 292 291 292 292 291 290 290 289 289 290 290 290 290 291 290 290 290 291 291 290 290 290 290 290 290 290 291 290 290 291 292 292 293 295 293 292 292 291 291 289 289 289 290 290 291 291 293 293 291 290 289 289 289 290 290 291 290 288 286
295 294 294 295 294 293 293 293 293 295 293 292 293 293 294 293 292 292 291 291 290 289 290 290 291 291 291 291 291 292 291 291 291 290 289 289 289 290 290 290 290 289 290 290 291 292 292 292 292 292 291 290 291 290 289 289 289 290 290 291 292 292 292 293 293 289 289 288 288 288 288 289 289 289
294 294 294 294 293 292 292 292 292 293 292 293 294 293 293 293 292 291 291 290 290 290 290 291 291 291 291 291 291 290 291 290 290 291 290 290 291 291 290 289 289 290 290 291 290 290 291 291 291 292 291 291 291 290 290 290 289 289 290 290 290 292 292 292 292 291 292 292 291 288 288 288 288 288
Wind_Speed
1 2 3 5 4 3 3 3 2 3 4 4 5 5 4 4 6 7 7 5 6 10 10 8 6 8 8 8 8 8 8 10 9 8 8 7 6 7 10 11 11 10 10 10 9 9 9 8 7 8 8 8 7 6 6 5 4 5 5 5 4 4 4 4 2 3 5 6 6 6 7 7 8 8
2 3 3 4 4 5 2 3 5 4 4 3 3 3 5 4 4 4 6 6 5 6 5 7 8 8 9 8 8 7 8 11 7 10 8 8 7 8 9 9 10 10 9 9 8 7 7 6 6 6 6 5 5 4 4 4 3 3 4 4 4 3 3 3 4 3 3 3 4 5 6 6 7 8
3 4 4 4 5 5 5 5 5 5 4 4 5 5 5 7 5 5 6 6 3 2 4 7 8 8 9 7 7 8 8 8 6 9 8 9 10 10 7 7 8 8 8 8 7 7 5 4 4 4 4 4 4 4 3 3 3 2 3 2 3 2 3 3 4 4 3 4 4 4 5 5 6 7
3 3 4 4 6 5 5 6 6 6 5 5 2 5 3 1 5 5 4 5 6 2 4 7 8 9 7 8 8 8 8 5 3 10 8 11 11 8 6 6 6 7 7 7 7 7 7 5 5 4 4 4 3 3 3 2 2 1 2 2 2 2 3 3 4 4 4 4 5 5 5 6 7 8
5 4 5 5 6 7 7 7 6 5 3 3 5 5 4 4 3 5 7 7 7 4 5 5 7 8 8 7 9 9 8 8 7 10 11 12 9 9 8 6 7 7 7 7 6 6 5 5 5 5 5 5 4 4 3 3 2 2 3 2 2 2 3 4 4 4 5 5 6 7 7 7 8 9
3 3 4 6 6 6 7 7 7 6 5 5 5 4 5 5 3 3 5 7 6 7 5 6 7 8 8 7 8 9 9 9 9 11 11 10 10 9 9 9 7 10 8 8 7 6 6 7 7 6 6 6 6 5 4 4 4 4 4 4 5 6 7 7 6 7 7 7 7 7 8 8 9 9
5 5 4 6 6 5 6 6 5 6 6 5 4 3 2 3 3 2 5 7 7 8 7 6 7 7 7 6 9 11 9 9 9 11 11 11 10 9 11 10 8 12 11 11 9 9 8 7 7 7 6 6 6 6 6 6 6 5 6 6 6 7 7 6 6 5 7 8 8 9 9 9 10 10
6 6 6 5 6 6 7 6 5 5 3 2 4 4 4 2 0 2 3 6 7 6 8 7 8 8 8 7 9 10 10 10 10 10 10 11 10 11 10 11 11 12 14 13 11 10 9 8 8 7 7 7 7 7 7 7 6 6 7 7 7 7 6 6 6 6 6 7 9 9 10 9 11 12
6 6 6 7 7 5 5 4 4 3 1 3 3 2 4 4 4 1 2 3 5 7 7 7 7 8 8 8 8 10 10 10 10 10 11 11 11 8 8 3 9 14 11 9 9 9 9 8 8 8 9 9 8 8 8 8 7 7 8 7 7 7 7 6 6 6 6 6 5 8 8 7 9 10
3 4 4 5 6 5 5 5 3 2 5 2 1 3 4 3 6 5 5 5 4 6 7 8 7 7 8 8 7 10 10 10 10 10 11 10 10 9 8 8 7 7 7 6 5 4 6 8 8 10 9 9 9 9 9 8 8 8 8 7 7 6 5 5 4 4 4 3 3 3 4 6 9 11
3 3 3 3 3 3 3 3 2 2 1 2 2 3 2 4 1 5 5 6 7 6 7 7 7 7 8 7 8 9 10 10 10 9 9 9 9 7 9 7 8 7 8 8 8 7 8 10 8 8 8 9 9 9 8 8 8 8 7 7 6 5 5 4 3 3 3 4 5 5 6 7 9 11
2 3 4 2 3 1 2 4 2 1 1 2 4 2 3 3 4 3 5 6 6 8 8 7 8 8 8 8 7 8 10 10 10 10 9 9 8 7 7 8 7 7 7 6 6 4 7 8 6 7 7 9 10 10 9 9 8 9 8 7 6 5 4 3 4 4 4 5 5 6 7 7 7 9
3 3 3 1 5 7 6 8 7 6 5 5 4 4 4 4 4 5 4 5 6 6 7 8 7 8 8 8 9 9 9 10 11 9 8 7 7 8 8 8 8 7 8 7 7 8 9 8 8 8 8 8 10 10 12 10 10 10 8 7 6 4 3 3 4 4 4 5 6 6 7 7 7 8
5 4 4 6 7 7 7 7 7 7 8 7 5 4 3 4 5 6 6 5 5 6 6 5 6 8 9 9 9 9 8 9 9 8 8 9 9 8 6 5 5 7 8 7 8 9 10 9 9 10 11 10 11 8 10 8 9 9 8 6 5 3 3 3 3 4 4 6 6 7 7 8 8 9
5 5 4 5 5 5 4 2 4 3 3 3 4 4 3 3 3 6 7 7 6 7 6 2 6 9 7 6 7 8 9 8 9 9 9 9 8 8 9 9 6 6 8 9 9 8 11 10 9 9 8 11 9 10 6 15 14 11 8 7 5 3 2 1 2 3 5 6 7 8 8 8 9 9
5 5 5 3 3 4 5 3 6 6 7 5 1 2 3 3 2 1 4 6 7 8 7 6 8 10 5 7 8 8 8 8 7 8 9 10 10 8 8 8 8 7 8 8 8 8 5 9 7 5 6 6 8 6 14 15 13 12 10 8 6 3 2 1 3 4 6 7 8 9 9 9 9 10
6 5 5 6 4 5 7 4 5 4 6 7 7 5 4 6 8 9 8 6 6 7 8 7 8 8 9 9 8 6 7 6 9 10 11 8 5 6 8 7 5 7 8 8 8 8 7 8 7 7 5 6 4 10 14 16 15 13 10 9 6 5 4 3 2 4 6 8 8 8 9 10 10 10
6 6 5 5 5 4 3 3 5 5 6 4 5 5 6 7 8 10 10 11 10 7 6 8 10 9 8 9 6 5 6 8 9 8 8 6 6 9 9 4 5 7 8 9 7 8 7 8 7 6 6 6 6 6 12 15 13 12 11 9 8 6 5 4 4 6 8 9 9 9 9 10 10 10
7 5 7 6 8 6 7 5 4 5 3 5 7 7 6 7 7 7 7 5 4 5 6 8 9 9 9 9 9 5 7 6 4 6 7 8 8 7 6 7 6 6 7 7 7 8 6 6 7 5 4 5 5 5 12 15 14 13 11 10 9 8 7 6 8 10 9 9 10 10 10 10 10 10
11 8 6 7 8 8 6 9 8 1 5 6 8 8 8 8 8 4 5 4 4 3 4 5 6 6 6 4 1 2 1 1 1 2 5 1 2 5 5 5 6 6 6 6 6 6 6 5 5 5 5 4 4 4 6 11 14 13 12 12 11 11 10 10 10 11 11 11 10 10 10 9 9 11
8 7 8 9 7 9 2 7 6 5 1 6 8 9 9 9 8 5 4 7 8 7 6 6 7 10 12 14 14 14 9 4 7 4 4 5 5 4 4 5 8 8 7 5 5 5 6 5 5 5 5 5 5 5 5 7 11 13 13 14 14 13 13 13 13 12 12 11 11 10 10 8 8 13
6 5 4 6 8 5 6 3 6 2 3 6 8 8 8 9 9 7 4 2 4 6 8 8 8 7 8 9 11 12 13 15 5 4 4 5 5 7 7 8 10 9 6 5 3 4 4 4 4 4 4 5 6 8 5 9 9 13 13 15 15 14 15 15 14 12 13 12 12 11 10 7 9 9
7 6 6 15 11 7 4 6 2 3 5 6 7 7 7 7 7 7 4 4 4 3 3 4 4 3 3 2 4 5 7 3 2 2 6 4 6 5 5 5 8 8 7 8 6 3 4 5 4 4 4 6 6 4 5 7 8 9 8 8 10 14 14 15 14 13 14 14 14 13 8 8 8 7
3 2 4 4 10 12 9 7 4 3 3 5 6 7 6 5 4 6 2 3 4 4 5 4 4 4 5 4 4 4 5 5 3 3 4 4 8 7 6 10 10 8 2 5 1 5 2 2 3 2 4 4 3 3 4 5 6 5 3 3 4 12 17 14 12 16 15 15 15 12 7 9 9 6
7 3 3 5 6 6 6 5 6 6 5 3 5 5 5 2 3 6 6 3 2 4 4 3 4 4 5 5 5 5 5 5 4 2 4 4 6 4 4 5 9 4 7 5 7 1 2 3 4 2 3 4 5 6 5 5 3 5 3 3 5 5 8 8 9 9 15 17 15 10 9 11 12 9
3 3 5 5 5 6 6 8 7 7 7 5 4 4 2 4 7 5 6 4 4 5 7 6 6 5 5 5 5 5 5 5 4 3 5 6 7 7 6 8 9 6 5 3 7 2 3 3 3 4 4 4 6 6 6 4 4 5 2 2 5 6 3 6 7 7 5 4 4 5 6 13 12 11
4 2 8 4 3 7 7 6 6 6 6 5 7 8 4 4 6 6 5 5 4 5 7 6 7 7 7 7 7 6 5 3 4 5 6 6 6 6 7 8 8 7 6 4 1 3 2 3 3 3 5 5 6 6 6 6 4 1 2 5 6 5 6 6 6 6 5 5 6 6 8 8 9 10
8 7 7 5 6 6 7 7 6 6 5 5 9 5 3 3 4 5 4 4 7 4 3 5 5 7 6 5 5 6 4 6 6 6 6 6 7 7 6 7 9 8 6 5 3 2 3 3 4 2 3 4 5 6 6 5 5 5 5 6 6 6 6 6 6 6 5 5 6 7 8 8 8 6
7 6 5 8 9 8 6 6 7 7 8 8 6 6 3 4 5 5 6 6 6 6 4 1 2 5 8 9 10 11 11 8 6 5 5 6 6 7 7 7 6 5 4 4 3 2 1 2 3 4 3 4 5 5 5 5 5 6 6 7 7 6 6 6 6 6 6 6 6 7 8 7 7 5
5 4 5 5 6 7 4 4 3 4 4 2 2 3 4 5 6 6 6 5 3 4 4 4 3 5 8 8 7 4 6 5 4 4 3 4 4 3 2 2 3 3 3 2 2 2 2 2 2 3 4 4 5 5 5 5 6 6 7 8 7 6 5 5 5 5 6 7 7 8 7 7 7 5
1 3 2 2 2 3 4 4 3 3 2 1 1 2 3 4 5 6 6 4 2 5 6 7 6 6 7 8 8 5 6 5 4 2 4 4 3 2 4 4 1 2 3 2 1 1 2 3 2 3 4 5 5 5 5 5 7 7 7 8 6 6 6 6 6 6 6 6 7 7 7 6 6 5
8 7 3 3 3 3 3 2 2 2 2 2 3 3 3 4 5 1 3 1 1 2 3 5 6 6 6 8 7 6 6 6 3 2 2 5 5 5 3 2 2 3 4 6 5 6 6 5 5 5 5 4 5 6 6 6 7 7 8 6 5 5 5 6 5 5 4 6 7 6 6 6 6 6
8 6 5 5 4 4 2 2 3 3 2 1 3 4 4 5 5 4 5 6 5 5 5 6 6 7 5 5 5 6 7 6 5 5 6 5 4 4 4 3 4 4 4 5 6 8 7 5 8 8 4 4 6 5 4 4 6 6 6 6 5 5 5 5 5 5 6 6 6 6 6 6 6 5
4 4 4 3 3 3 3 3 2 1 1 1 1 1 2 3 6 5 5 6 7 4 4 5 6 5 4 5 5 6 6 6 5 5 3 3 2 2 2 1 2 3 4 4 5 6 4 1 1 5 6 8 8 8 7 7 6 5 5 5 5 6 5 5 5 6 5 5 6 7 6 6 6 5
3 5 4 3 3 3 4 3 4 4 4 4 3 3 3 3 4 4 5 6 3 3 4 4 4 6 5 7 7 7 5 6 5 4 3 3 2 3 2 0 2 4 3 3 3 4 3 3 5 6 6 7 6 9 9 3 3 5 5 5 5 5 6 5 5 5 6 6 5 5 6 6 6 5
4 3 3 3 3 3 3 4 5 4 4 6 4 3 4 3 2 3 4 3 4 3 4 5 5 5 5 4 4 4 4 5 5 4 2 2 1 1 1 2 3 3 3 3 4 5 5 5 5 6 4 4 5 5 4 4 3 2 5 3 4 5 5 6 6 6 5 6 5 5 5 5 6 6
3 3 3 4 7 7 5 5 5 5 6 6 5 5 4 3 3 5 3 3 6 3 2 3 3 4 5 5 5 5 4 4 3 2 2 1 0 0 1 1 2 3 4 5 5 5 4 5 5 5 5 5 5 7 2 3 6 7 4 3 4 5 4 5 5 6 5 5 6 5 4 4 4 5
4 4 8 7 7 7 8 8 6 5 5 5 5 5 7 7 6 3 4 2 1 3 4 4 4 4 4 4 4 4 4 3 3 2 1 1 0 0 1 2 3 3 5 6 6 7 5 5 4 4 5 5 5 5 5 2 1 4 9 5 3 3 3 3 4 5 5 6 6 5 5 5 3 5
8 7 7 7 7 8 7 6 6 5 7 7 5 5 5 7 7 4 1 1 3 4 5 5 5 4 5 4 3 3 3 2 1 1 1 0 2 2 3 3 3 3 4 3 5 6 6 6 5 5 5 4 4 5 5 5 6 4 5 10 4 3 3 3 5 4 3 4 5 5 4 4 7 4
7 7 7 8 8 8 8 8 6 7 6 6 5 7 6 5 5 2 1 1 3 3 5 5 7 6 5 4 4 3 3 2 1 0 2 3 4 4 4 3 3 3 2 2 2 4 5 6 4 5 3 1 2 3 4 6 6 6 4 5 4 2 3 3 5 4 3 5 5 4 5 4 3 2
7 7 7 6 7 7 7 7 7 5 6 7 7 6 7 6 5 4 2 2 3 5 6 6 5 5 5 5 3 3 3 2 1 2 3 3 2 1 2 4 3 4 4 3 3 4 7 4 4 4 1 2 2 3 4 5 6 4 3 2 4 4 1 3 5 4 3 4 4 4 5 5 4 4
6 6 6 7 7 7 6 6 7 6 7 5 4 4 4 4 3 6 6 6 5 5 5 5 5 5 5 4 3 2 2 2 3 3 4 4 4 4 3 4 5 4 6 6 3 3 5 2 6 4 2 2 3 4 5 6 6 5 4 1 2 4 6 6 9 7 4 2 3 3 4 4 4 5
7 7 7 7 8 8 7 7 7 6 4 3 3 3 3 2 2 2 3 4 4 4 5 4 3 3 3 3 2 2 3 5 4 3 1 1 1 1 3 3 5 5 2 3 3 4 3 3 4 1 1 3 4 4 6 4 3 4 4 1 3 3 4 9 11 10 9 7 6 4 3 3 3 4
7 7 6 7 7 8 8 8 7 6 5 3 2 2 1 1 1 3 3 4 4 5 4 3 3 2 2 3 4 4 4 2 3 2 2 1 2 3 3 3 3 1 1 3 4 3 3 3 3 3 3 3 4 4 4 4 4 3 4 4 3 3 3 2 5 5 6 8 11 11 11 11 10 9
7 7 7 5 5 6 6 6 6 5 5 5 3 2 2 2 3 3 4 4 5 5 4 3 2 2 3 3 3 2 2 2 2 0 2 2 3 2 2 4 4 3 3 4 3 3 4 4 3 3 3 4 3 4 4 4 5 4 5 4 4 3 3 3 3 2 3 3 10 16 14 13 14 15
Wind_Direction
154 210 169 130 211 171 141 135 122 90 102 145 163 174 171 157 149 151 138 138 140 149 145 127 135 123 120 121 130 141 130 142 165 125 124 122 114 99 103 104 103 103 102 102 100 98 96 96 96 93 90 88 84 78 74 66 58 66 68 65 64 59 48 34 28 64 68 66 60 48 42 30 20 10
160 185 183 164 162 119 119 128 120 132 137 143 147 171 129 162 161 137 149 141 153 146 176 144 137 136 132 140 149 134 132 165 190 126 128 127 117 107 104 105 104 102 102 98 99 100 97 93 90 89 92 88 88 88 81 66 48 51 58 39 36 52 51 32 13 18 45 48 50 45 28 18 8 358
181 183 180 165 133 147 155 142 127 125 156 155 177 169 165 160 146 167 143 158 147 160 140 115 138 144 150 158 140 135 135 164 210 133 135 125 118 128 98 105 109 108 110 112 113 116 115 115 111 110 111 112 103 84 79 79 67 58 48 19 7 20 37 24 16 352 15 10 7 18 9 1 356 349
163 184 158 152 142 162 151 144 143 151 171 213 155 85 90 41 143 131 157 150 123 187 130 138 143 146 161 147 144 138 144 134 255 139 136 121 144 143 131 117 126 128 133 142 142 137 141 146 147 135 124 113 106 101 95 84 84 78 32 28 16 20 36 38 28 9 3 358 351 1 350 344 342 340
148 160 161 156 152 157 152 149 145 151 152 128 134 146 121 131 168 192 162 151 145 145 129 147 153 152 159 158 152 150 140 153 158 144 132 148 162 156 157 154 151 152 146 142 141 145 154 153 143 138 139 134 131 133 125 114 98 74 59 49 53 44 67 58 51 26 7 359 1 356 347 347 344 337
110 136 158 153 150 153 149 146 157 151 161 158 145 152 165 140 150 137 134 125 153 144 164 169 149 152 187 159 167 146 156 167 168 150 149 168 185 166 170 172 168 170 162 161 160 161 165 161 157 157 151 146 143 135 127 113 96 82 83 76 59 60 54 49 44 28 19 16 9 9 7 1 352 341
133 137 138 136 143 149 146 168 167 155 189 175 140 124 131 123 132 208 152 149 151 163 165 177 158 167 193 190 170 157 165 176 175 162 165 178 199 181 173 180 170 171 170 169 170 174 170 168 166 160 155 146 137 134 126 117 109 102 87 76 71 66 61 55 51 40 34 32 28 24 21 9 359 351
140 132 139 122 137 146 160 176 153 189 185 253 131 161 119 123 322 43 358 164 146 173 166 189 178 168 185 202 178 165 170 178 188 172 174 192 201 198 182 188 174 167 170 170 170 171 168 168 167 161 158 152 149 144 134 124 119 110 102 100 97 96 93 85 72 62 44 37 26 18 19 7 358 352
118 137 142 147 133 150 152 139 181 169 148 198 136 198 149 163 165 192 260 258 177 163 183 179 203 163 183 200 190 175 173 178 196 188 180 198 207 194 200 107 128 139 158 163 167 165 169 170 168 165 163 161 158 148 136 133 135 129 122 119 116 110 103 92 83 68 57 41 27 18 9 3 352 348
113 120 123 131 146 153 158 177 196 158 167 223 235 195 250 203 164 192 191 235 244 186 192 178 202 175 182 195 201 186 182 181 193 201 189 195 209 192 187 129 146 157 162 176 160 159 171 172 170 171 168 165 160 149 145 147 146 140 134 124 115 113 109 104 95 89 74 59 41 18 4 0 355 351
125 134 118 136 128 149 168 165 171 170 201 256 270 279 261 278 223 181 212 212 219 223 209 191 202 191 187 200 197 199 189 190 196 206 202 194 213 199 196 166 154 172 175 169 159 183 195 159 180 169 172 167 162 158 158 159 150 137 134 132 134 134 136 122 105 74 51 35 19 13 7 2 356 352
127 120 140 149 159 135 54 35 22 18 267 218 219 241 262 263 280 255 214 221 232 217 217 217 207 205 194 195 209 205 196 197 200 208 208 201 192 195 168 218 196 178 165 173 171 149 133 152 143 156 181 181 171 170 168 166 154 152 152 154 153 135 105 79 62 40 22 13 360 358 351 348 347 339
160 162 133 108 64 59 51 61 63 60 47 13 21 353 341 311 279 262 283 282 242 237 237 224 217 209 217 209 205 207 209 202 211 197 207 207 198 200 194 204 215 185 187 194 184 173 178 184 183 192 196 187 184 183 187 162 164 161 161 159 138 115 90 69 36 17 3 347 342 335 332 326 322 319
193 181 175 106 93 68 57 56 45 36 42 44 22 354 340 333 317 299 277 252 287 285 254 242 251 229 214 214 209 212 222 217 222 220 215 226 215 212 209 198 196 198 205 214 200 195 185 200 195 204 211 174 182 188 193 179 166 162 160 139 116 98 65 42 7 348 337 329 321 318 313 312 308 304
198 207 209 152 132 142 150 143 149 125 62 53 45 41 51 17 326 307 295 281 253 229 219 155 267 259 231 224 209 213 222 221 224 224 222 223 229 223 215 219 200 197 220 212 236 222 178 195 203 209 230 153 190 200 174 130 139 149 146 138 126 118 96 358 324 318 320 318 314 311 308 303 300 297
207 204 223 222 189 207 209 239 176 184 185 173 150 317 325 298 230 189 262 293 297 285 275 249 215 236 241 237 226 221 219 212 219 238 238 227 230 229 220 222 215 180 200 215 225 240 148 186 228 232 264 180 191 129 123 135 143 151 154 142 140 155 168 280 299 319 319 314 309 305 301 298 295 297
228 219 214 219 176 235 156 232 254 241 188 189 191 204 230 253 245 243 219 223 248 291 293 293 291 273 246 244 238 220 232 215 220 216 230 232 218 226 230 223 231 151 187 208 223 226 201 184 215 239 225 250 122 129 145 151 159 155 148 153 161 165 187 222 269 298 292 285 288 291 292 292 296 300
249 238 231 225 220 227 188 230 244 257 262 203 197 217 239 251 227 221 223 232 235 237 263 281 280 280 282 274 280 240 237 225 223 216 225 230 226 230 236 222 156 155 182 199 212 227 221 183 199 222 237 236 215 179 155 160 151 147 151 163 166 176 191 211 235 259 265 272 277 277 278 283 285 285
253 252 251 246 250 238 213 164 171 235 255 277 270 259 258 259 275 266 255 240 243 234 243 261 263 267 273 269 267 296 263 242 236 219 220 225 236 233 126 120 147 167 186 204 221 239 220 251 246 223 240 250 219 213 152 161 147 148 162 169 177 187 192 208 233 242 250 256 259 264 267 270 276 280
263 243 247 264 259 256 257 132 177 244 263 259 266 271 268 265 257 262 78 81 58 18 343 351 346 340 358 30 319 63 114 214 303 49 37 324 228 203 161 200 157 200 179 206 215 235 247 254 238 228 233 232 255 247 128 140 147 157 172 181 189 195 200 219 232 236 241 247 252 260 264 266 276 280
246 252 246 244 238 247 72 30 286 211 262 253 269 273 276 273 267 217 125 83 70 66 61 45 40 33 28 26 22 19 3 126 118 113 184 189 157 156 190 246 229 205 185 176 224 246 244 236 248 239 229 244 246 255 144 153 158 171 182 192 194 197 208 217 226 230 234 243 253 258 261 268 277 286
278 284 296 291 275 353 44 221 335 343 190 259 269 273 275 277 270 248 133 146 85 96 92 88 80 73 67 64 55 37 24 19 22 217 195 210 202 222 209 213 233 230 187 168 169 225 226 247 244 247 251 250 248 242 220 149 177 187 196 200 195 203 213 219 226 226 231 241 245 245 251 258 270 277
282 311 38 33 29 59 58 58 37 336 290 273 276 277 276 280 286 284 171 175 149 163 168 134 128 104 66 65 83 84 81 52 342 316 276 307 274 252 266 277 259 243 183 136 135 232 224 234 211 233 245 252 257 226 197 166 179 184 208 194 199 210 214 220 221 226 233 235 236 244 241 240 252 287
352 61 116 80 42 31 31 18 0 289 327 295 291 295 281 284 320 321 241 207 192 204 219 200 191 194 179 171 164 170 162 179 173 205 234 220 238 201 210 228 232 250 71 83 245 191 257 313 282 245 249 271 274 236 178 218 227 226 230 270 289 197 210 217 227 226 228 231 240 244 228 227 237 291
321 18 78 79 36 31 25 357 336 301 277 308 292 282 275 19 301 301 268 186 210 247 239 230 222 200 188 181 176 176 176 170 181 144 43 30 27 4 322 293 243 116 83 54 360 338 277 266 261 266 246 253 263 273 272 278 275 277 255 256 265 258 173 205 216 222 208 233 237 235 214 223 230 237
327 342 96 55 16 6 9 353 322 313 301 284 275 266 27 349 348 332 288 261 191 237 246 237 239 234 226 214 194 184 191 174 137 102 77 51 54 50 46 40 24 73 82 34 349 2 301 266 279 277 279 280 271 266 276 274 297 285 241 246 269 273 329 318 306 317 325 305 278 192 212 215 230 230
255 96 82 73 32 16 6 336 328 309 317 282 258 286 305 289 298 289 250 254 216 228 242 235 227 236 232 225 221 209 198 154 88 79 66 63 65 66 59 42 56 74 99 114 91 24 12 309 357 305 295 307 302 297 283 271 259 212 270 268 271 329 319 293 314 321 310 300 297 308 286 257 227 227
18 21 19 25 8 8 338 317 306 290 261 267 321 337 308 285 269 258 256 280 250 242 4 318 273 258 248 240 214 205 169 94 78 70 64 69 67 66 62 64 58 37 41 55 71 55 5 326 311 322 285 292 296 290 301 316 312 288 285 287 319 305 287 313 312 308 303 299 306 311 320 322 324 325
360 19 9 7 357 339 323 300 278 256 239 254 313 329 321 250 249 230 233 237 239 234 228 274 72 48 36 36 40 54 71 72 53 57 63 61 63 60 63 64 69 71 59 40 19 342 280 314 298 317 302 270 270 284 289 297 309 300 288 295 289 288 318 312 304 304 307 309 309 317 319 324 321 333
311 344 323 290 285 278 263 269 300 348 44 124 342 330 291 272 260 244 223 212 185 128 125 133 97 90 98 97 93 89 99 117 129 114 113 101 90 94 106 121 117 112 92 73 2 348 302 278 283 275 288 275 267 279 288 286 286 296 304 285 285 300 284 291 299 298 305 313 319 318 318 318 320 337
262 213 245 351 320 307 324 277 257 272 183 193 214 234 228 257 279 267 258 248 205 160 156 137 130 116 117 122 126 127 104 94 91 128 153 123 109 80 43 24 14 138 153 148 157 300 338 322 277 263 251 270 274 262 273 297 296 293 281 285 312 306 305 300 292 297 315 317 315 311 312 316 317 329
316 301 234 227 233 232 236 237 248 240 249 260 254 255 243 239 247 4 30 45 135 138 94 101 105 115 126 131 137 129 110 118 118 27 46 100 90 75 70 80 281 251 213 175 197 183 195 199 234 235 252 287 307 315 330 315 298 286 286 299 311 298 294 290 299 304 338 324 309 313 313 311 314 321
298 289 276 267 254 250 255 259 263 247 251 261 262 263 267 256 248 254 246 224 195 164 140 136 142 147 143 122 106 114 119 111 107 86 73 59 112 151 174 199 225 229 238 224 227 190 188 209 206 216 216 226 227 235 241 263 270 283 293 302 301 296 287 291 300 307 313 304 302 309 308 312 320 326
292 287 280 270 264 264 259 259 257 249 225 219 232 247 237 277 274 265 252 240 220 156 142 141 146 149 127 109 117 124 125 124 114 89 99 133 121 137 145 179 258 288 292 304 309 321 301 236 230 258 236 210 216 220 213 228 258 268 289 300 298 288 291 293 302 308 311 305 311 310 315 318 317 334
239 267 279 281 273 270 287 290 306 316 303 291 296 305 308 295 287 269 255 243 216 156 157 153 155 149 144 145 142 132 130 127 114 94 81 82 88 88 68 29 260 270 280 298 310 298 272 258 267 277 285 297 263 213 213 306 301 283 294 295 292 291 294 306 311 307 309 308 306 306 310 311 321 335
281 296 312 311 303 296 288 296 300 311 333 332 315 308 304 294 273 253 256 221 163 184 171 167 160 154 145 129 111 92 84 79 74 84 73 81 78 52 303 260 268 285 299 293 286 265 260 273 282 282 291 289 292 290 169 246 268 323 302 289 288 293 298 303 306 302 299 300 302 303 307 318 320 319
294 335 321 330 326 324 336 341 350 1 332 318 325 322 312 304 300 278 286 152 185 208 191 138 118 104 93 92 93 100 109 112 112 110 110 112 145 244 260 284 292 301 292 273 257 258 265 266 262 278 282 282 284 283 285 142 280 274 281 272 278 280 301 309 307 297 294 300 304 305 309 318 314 311
329 349 355 339 334 325 332 329 330 338 325 316 308 313 312 310 307 322 75 152 176 110 87 94 97 105 108 105 113 115 108 105 111 126 136 137 103 248 259 253 245 229 241 247 242 249 257 258 269 273 270 276 285 284 288 259 216 245 229 258 278 296 292 291 289 304 312 308 307 313 319 305 309 305
14 359 351 350 350 347 343 342 338 335 331 328 329 319 318 312 313 307 159 217 160 144 130 118 114 108 94 76 74 94 107 119 121 117 116 164 231 231 238 237 245 248 250 258 280 287 271 267 257 250 264 272 277 294 309 304 290 318 202 223 278 289 290 302 304 302 300 304 307 318 309 294 268 165
13 3 2 0 355 351 348 343 341 342 340 331 316 325 341 351 334 20 67 125 145 126 121 110 110 113 106 106 104 101 92 83 102 217 205 221 217 227 236 242 254 252 247 260 277 281 279 275 13 19 13 308 322 320 301 288 287 282 274 225 241 283 291 312 307 304 297 307 317 314 313 308 305 127
10 5 13 2 352 346 345 342 339 344 340 338 338 346 343 338 338 351 332 123 138 126 119 116 103 96 98 98 103 111 122 147 201 241 254 255 266 259 31 357 287 267 255 260 230 234 254 86 123 134 74 307 290 274 263 266 272 278 250 172 202 238 145 260 295 315 301 304 304 308 307 312 321 313
9 11 9 4 352 356 349 352 347 348 341 342 348 340 341 339 40 64 68 66 61 68 90 95 91 91 100 108 109 111 166 194 214 225 229 222 206 190 211 230 244 244 246 259 309 317 319 13 144 144 283 291 277 272 272 275 288 306 317 130 154 217 225 237 267 279 279 306 324 322 328 328 338 316
19 16 16 8 5 359 360 356 350 354 356 352 349 342 335 339 75 87 102 90 86 81 79 82 97 115 125 148 163 197 215 221 219 223 215 276 277 235 246 249 248 265 326 331 276 263 271 286 294 311 309 276 264 268 283 300 309 297 301 316 170 217 211 212 226 241 255 264 265 266 292 310 323 314
21 19 12 9 14 11 8 360 355 356 356 347 1 357 348 355 94 91 91 92 92 89 87 105 135 153 155 184 207 218 238 244 194 195 230 232 258 257 270 324 344 35 249 268 291 305 316 319 331 320 293 285 297 301 301 309 295 297 297 305 298 274 276 214 204 233 250 248 246 244 250 254 250 261
19 21 19 19 17 14 10 4 5 3 4 0 24 39 29 72 80 85 84 83 84 93 115 145 166 186 224 206 199 198 244 59 15 127 219 222 242 246 240 239 246 264 308 338 331 328 322 330 328 328 307 294 287 282 286 281 288 293 288 290 288 294 305 317 301 272 234 235 219 220 227 233 246 256